QPF
0.00 0.00 0.00 0.00 0.00 0.00 0.00 0.00 0.00 0.00 0.00 0.00 0.00 0.00 0.00 0.01 0.00 0.00 0.00 0.00 0.01 0.00
0.00 0.00 0.00 0.00 0.00 0.00 0.00 0.00 0.00 0.00 0.00 0.00 0.00 0.00 0.03 0.05 0.00 0.01 0.01 0.01 0.02 0.00
0.00 0.00 0.00 0.00 0.00 0.00 0.00 0.00 0.00 0.00 0.00 0.00 0.00 0.00 0.04 0.02 0.01 0.05 0.02 0.00 0.01 0.02
0.00 0.00 0.00 0.00 0.00 0.00 0.00 0.00 0.00 0.00 0.00 0.00 0.00 0.00 0.00 0.02 0.03 0.02 0.03 0.03 0.02 0.03
0.00 0.00 0.00 0.00 0.00 0.00 0.00 0.00 0.00 0.00 0.00 0.00 0.00 0.00 0.00 0.00 0.01 0.00 0.02 0.01 0.08 0.01
0.00 0.00 0.00 0.00 0.00 0.00 0.00 0.00 0.00 0.00 0.00 0.00 0.00 0.00 0.00 0.00 0.00 0.00 0.00 0.00 0.00 0.00
0.00 0.00 0.00 0.00 0.00 0.00 0.00 0.00 0.00 0.00 0.00 0.00 0.01 0.00 0.00 0.00 0.00 0.00 0.00 0.00 0.00 0.00
0.00 0.00 0.00 0.00 0.00 0.00 0.00 0.00 0.00 0.00 0.00 0.00 0.00 0.00 0.01 0.00 0.00 0.00 0.00 0.00 0.00 0.00
0.00 0.00 0.00 0.00 0.00 0.00 0.01 0.01 0.00 0.00 0.00 0.00 0.00 0.01 0.00 0.00 0.00 0.00 0.00 0.00 0.00 0.00
0.00 0.00 0.00 0.00 0.00 0.01 0.10 0.04 0.00 0.01 0.01 0.01 0.00 0.00 0.00 0.00 0.00 0.00 0.00 0.00 0.00 0.00
0.00 0.00 0.00 0.00 0.00 0.01 0.06 0.04 0.06 0.07 0.07 0.02 0.00 0.00 0.00 0.00 0.00 0.00 0.00 0.00 0.00 0.00
0.01 0.00 0.01 0.01 0.00 0.03 0.07 0.06 0.06 0.02 0.00 0.00 0.00 0.00 0.00 0.00 0.00 0.00 0.00 0.00 0.00 0.00
0.15 0.09 0.10 0.08 0.01 0.01 0.01 0.00 0.00 0.00 0.00 0.00 0.00 0.00 0.00 0.00 0.00 0.00 0.00 0.00 0.00 0.00
0.24 0.28 0.19 0.10 0.02 0.00 0.00 0.00 0.00 0.00 0.00 0.00 0.00 0.00 0.00 0.00 0.00 0.00 0.00 0.00 0.00 0.00
MSLP
1015.38 1015.39 1015.61 1015.73 1015.67 1015.64 1015.51 1015.37 1015.70 1016.29 1016.59 1016.86 1016.94 1017.16 1017.33 1017.43 1017.53 1017.34 1017.50 1017.69 1017.75 1017.16
1014.64 1014.83 1014.66 1015.00 1015.38 1015.62 1015.70 1015.55 1015.72 1015.93 1016.17 1016.23 1016.44 1016.66 1016.88 1017.55 1017.23 1017.17 1017.26 1017.40 1017.34 1017.33
1013.50 1014.08 1014.26 1014.56 1014.90 1015.09 1015.33 1015.75 1015.72 1015.82 1015.89 1015.94 1016.04 1016.24 1016.54 1016.84 1016.59 1016.91 1016.82 1016.59 1016.40 1016.90
1012.46 1013.02 1013.68 1013.92 1014.34 1014.70 1014.99 1015.16 1015.45 1015.55 1015.52 1015.61 1015.76 1015.91 1016.14 1016.35 1016.35 1016.45 1016.58 1016.44 1016.29 1016.26
1011.89 1012.30 1012.64 1013.12 1013.44 1013.96 1014.37 1014.69 1014.90 1015.10 1015.16 1015.25 1015.35 1015.49 1015.64 1015.75 1015.56 1015.56 1015.61 1015.79 1015.86 1015.82
1011.23 1011.58 1011.78 1012.36 1012.89 1013.25 1013.65 1014.07 1014.27 1014.49 1014.65 1014.81 1014.95 1015.04 1015.12 1015.22 1015.23 1015.20 1015.13 1015.06 1014.96 1014.95
1010.48 1010.85 1011.25 1011.67 1012.22 1012.63 1013.00 1013.35 1013.65 1013.92 1014.11 1014.25 1014.42 1014.53 1014.68 1014.68 1014.58 1014.60 1014.47 1014.43 1014.36 1014.30
1009.87 1010.38 1010.90 1011.29 1011.84 1012.25 1012.55 1012.73 1013.10 1013.31 1013.56 1013.77 1013.86 1013.84 1014.00 1014.17 1014.24 1014.20 1014.06 1013.98 1013.86 1013.80
1009.55 1010.01 1010.66 1011.08 1011.49 1011.94 1012.24 1012.28 1012.66 1012.87 1012.97 1013.13 1013.45 1014.08 1014.22 1014.49 1014.12 1013.82 1013.48 1013.24 1013.15 1013.08
1008.94 1009.50 1009.97 1010.54 1011.08 1011.43 1011.83 1011.78 1012.29 1012.74 1013.06 1013.40 1014.02 1014.59 1014.88 1015.11 1014.64 1014.13 1013.54 1013.08 1012.75 1012.43
1008.77 1009.30 1009.59 1009.79 1010.62 1011.28 1012.19 1012.25 1012.60 1013.12 1013.70 1013.90 1014.13 1014.80 1015.13 1015.26 1014.72 1014.02 1013.45 1013.13 1012.92 1012.69
1008.92 1009.88 1010.34 1010.37 1010.69 1011.76 1012.37 1012.77 1013.20 1013.59 1013.79 1013.99 1014.10 1014.96 1015.40 1015.24 1014.17 1013.33 1012.92 1012.60 1012.26 1011.88
1009.36 1009.60 1011.13 1011.54 1011.53 1012.24 1012.50 1012.77 1012.80 1013.25 1013.62 1014.10 1014.22 1014.82 1015.06 1014.99 1014.12 1013.03 1012.37 1011.90 1011.67 1011.60
1010.31 1009.47 1011.60 1013.48 1012.93 1012.56 1012.69 1012.99 1013.01 1013.22 1013.50 1013.91 1014.19 1014.29 1014.61 1014.77 1014.49 1013.40 1012.47 1011.74 1010.98 1010.57
Thickness
5763 5764 5764 5766 5768 5770 5773 5777 5777 5773 5773 5773 5773 5772 5772 5774 5775 5778 5776 5773 5774 5780
5767 5767 5770 5771 5770 5770 5770 5774 5774 5773 5774 5774 5774 5774 5773 5768 5773 5775 5775 5773 5774 5774
5776 5774 5774 5773 5770 5771 5770 5768 5769 5770 5772 5774 5774 5773 5772 5770 5774 5771 5773 5776 5778 5773
5782 5780 5777 5775 5774 5772 5773 5772 5769 5769 5770 5771 5770 5771 5770 5768 5770 5769 5769 5771 5772 5773
5782 5782 5781 5780 5779 5777 5774 5773 5772 5771 5770 5769 5769 5769 5768 5766 5770 5770 5769 5769 5770 5771
5783 5783 5784 5782 5781 5780 5777 5774 5773 5772 5770 5769 5769 5769 5768 5768 5768 5768 5768 5769 5770 5771
5785 5785 5784 5784 5780 5779 5777 5775 5773 5772 5771 5771 5769 5768 5767 5767 5767 5766 5767 5768 5769 5769
5786 5784 5783 5780 5777 5776 5775 5774 5773 5771 5770 5769 5769 5770 5770 5768 5765 5764 5763 5763 5765 5765
5783 5781 5777 5775 5773 5770 5769 5771 5769 5768 5769 5768 5768 5761 5759 5756 5759 5760 5762 5761 5762 5763
5783 5780 5777 5775 5770 5767 5767 5770 5767 5763 5763 5761 5758 5749 5745 5743 5747 5750 5754 5756 5757 5759
5781 5776 5777 5777 5769 5764 5759 5759 5757 5753 5750 5749 5750 5740 5736 5734 5738 5743 5746 5748 5749 5749
5769 5762 5761 5763 5764 5755 5751 5749 5746 5745 5743 5741 5742 5731 5727 5727 5736 5742 5743 5745 5746 5748
5755 5744 5747 5747 5747 5744 5744 5744 5745 5740 5738 5732 5731 5724 5722 5722 5728 5735 5738 5742 5742 5741
5747 5751 5737 5721 5728 5734 5735 5735 5736 5733 5731 5727 5724 5723 5718 5716 5716 5723 5729 5732 5737 5742